Location: Columbia
(38.9520°N, 92.3340°W)
Time: 22:55:05
(UTC-05:00)

Tiangong 1 - Visible Passes

Search period start: 19 September 2017 00:00
Search period end: 29 September 2017 00:00
Orbit: 304 x 329 km, 42.8° (Epoch: 19 September)

Date Brightness Start Highest point End Pass type
(mag) Time Alt. Az. Time Alt. Az. Time Alt. Az.
19 Sep 1.8 05:34:23 31° NNW 05:34:53 34° N 05:37:23 10° ENE visible
20 Sep 1.9 05:47:38 21° NW 05:48:52 34° N 05:51:22 10° ENE visible
21 Sep 1.6 06:00:49 15° WNW 06:02:43 43° N 06:05:19 10° E visible
22 Sep 4.3 04:43:07 12° ENE 04:43:07 12° ENE 04:43:28 10° ENE visible
22 Sep 0.8 06:13:56 11° WNW 06:16:25 73° NNE 06:19:06 10° ESE visible
23 Sep 3.6 04:56:13 18° ENE 04:56:13 18° ENE 04:57:11 10° E visible
23 Sep 0.9 06:27:17 10° WNW 06:29:54 51° SSW 06:32:31 10° SE visible
24 Sep 2.8 05:09:19 27° E 05:09:19 27° E 05:10:46 10° E visible
25 Sep 2.1 05:22:27 32° SE 05:22:27 32° SE 05:24:04 10° ESE visible
26 Sep 2.6 05:35:36 20° SSE 05:35:36 20° SSE 05:36:52 10° SSE visible
